Weather observations for the past three days for
Fort Bridger WY
Metric (Imperial)
Date Time (mdt) Wind (kph) Vis. (km) Weather Sky Cond. Temperature (ºC) Relative Humidity Wind Chill (°C) Heat Index (°C) Pressure Precipitation (cm)
Air Dwpt 6 hour altimeter (cm) sea level (mb) 1 hr 3 hr 6 hr
Max. Min.
02 18:55 W 20 G 30 16.09 Fair CLR 18.2 -13.6 10% 76.53 0.0
02 18:35 W 26 G 39 16.09 Fair CLR 19.1 -13.7 10% 76.56 0.0
02 18:15 W 15 16.09 Fair CLR 19.3 -13.7 9% 76.56 0.0
02 17:55 W 17 G 26 16.09 Fair CLR 19.1 -13.9 20.1 15 9% 76.56 0.0
02 17:35 W 24 G 33 16.09 Fair CLR 19.9 -13.5 9% 76.58 0.0
02 17:15 W 13 G 41 16.09 Fair CLR 19.4 -13.1 10% 76.58 0.0
02 16:55 NW 11 16.09 Fair CLR 19.5 -12.9 10% 76.61 0.0
02 16:35 SW 20 G 33 16.09 Partly Cloudy SCT110 20 -12.7 10% 76.61 0.0
02 16:15 NW 7 16.09 Fair CLR 18.9 -13.5 10% 76.63 0.0
02 15:55 W 15 G 31 16.09 Fair CLR 19.4 -13.3 10% 76.68 0.0
02 15:35 NW 6 G 26 16.09 Fair CLR 18.8 -13.6 10% 76.68 0.0
02 15:15 SW 11 16.09 Fair CLR 18.4 -13.9 10% 76.71 0.0
02 14:55 NW 13 G 30 16.09 Fair CLR 18.5 -13.6 10% 76.71 0.0
02 14:35 W 17 G 30 16.09 Fair CLR 18.9 -13.8 10% 76.73 0.0
02 14:15 N 7 G 31 16.09 Fair CLR 17.7 -14.1 10% 76.76 0.0
02 13:55 N 15 G 26 16.09 Fair CLR 18.2 -13.5 10% 76.76 0.0
02 13:35 NW 13 16.09 Fair CLR 17.5 -13 11% 76.78 0.0
02 13:15 W 11 16.09 Fair CLR 17.1 -13.1 11% 76.81 0.0
02 12:55 Calm 16.09 Fair CLR 15.8 -13.6 12% 76.84 0.0
02 12:35 NE 9 G 26 16.09 Fair CLR 16.6 -13.1 12% 76.86 0.0
02 12:15 NE 17 G 26 16.09 Fair CLR 15.8 -13.1 12% 76.89 0.0
02 11:55 NE 9 16.09 Fair CLR 14.9 -13.4 15.7 1 13% 76.89 0.0
02 11:35 W 7 16.09 Fair CLR 15 -13.3 13% 76.91 0.0
02 11:15 NW 9 16.09 Fair CLR 14.4 -13.3 13% 76.91 0.0
02 10:55 Calm 16.09 Fair CLR 13.9 -13.4 14% 76.91 0.0
02 10:35 Calm 16.09 Fair CLR 13.3 -13.3 14% 76.91 0.0
02 10:15 W 6 16.09 Fair CLR 12.8 -12.8 16% 76.94 0.0
02 09:55 NW 7 16.09 Fair CLR 12.1 -11.3 18% 76.94 0.0
02 09:35 NW 6 16.09 Fair CLR 11.4 -10.3 21% 76.91 0.0
02 09:15 Calm 16.09 Fair CLR 10 -10.8 22% 76.91 0.0
02 08:55 W 6 16.09 Fair CLR 9.5 -11 23% 76.94 0.0
02 08:35 W 7 16.09 Fair CLR 9.5 -11.9 21% 9 76.94 0.0
02 08:15 W 7 16.09 Fair CLR 8.8 -12.1 22% 8 76.94 0.0
02 07:55 W 7 16.09 Fair CLR 7 -12.4 24% 6 76.94 0.0
02 07:35 W 6 16.09 Fair CLR 4.2 -11.8 30% 76.94 0.0
02 07:15 W 13 16.09 Fair CLR 2.1 -11.8 35% -1 76.91 0.0
02 06:55 W 9 16.09 Fair CLR 1.5 -13 33% -1 76.89 0.0
02 06:35 W 7 16.09 Fair CLR 4.3 -14 25% 3 76.89 0.0
02 06:15 W 6 16.09 Fair CLR 3.9 -13.5 27% 76.89 0.0
02 05:55 W 7 16.09 Fair CLR 1.7 -13 6.2 0.1 33% -0 76.89 0.0
02 05:35 W 7 16.09 Fair CLR 0.7 -13 35% -1 76.89 0.0
02 05:15 Calm 16.09 Fair CLR 4 -14.3 25% 76.89 0.0
02 04:55 Calm 16.09 Fair CLR 5.5 -14 23% 76.89 0.0
02 04:35 Calm 16.09 Fair CLR 5.5 -13.9 23% 76.89 0.0
02 04:15 Calm 16.09 Fair CLR 5.4 -13.5 24% 76.89 0.0
02 03:55 S 6 16.09 Fair CLR 5.7 -14 23% 76.86 0.0
02 03:35 Calm 16.09 Fair CLR 5.5 -13.6 24% 76.89 0.0
02 03:15 SE 6 16.09 Fair CLR 3.9 -13.5 27% 76.89 0.0
02 02:55 Calm 16.09 Fair CLR 4.4 -13.2 27% 76.89 0.0
02 02:35 E 7 16.09 Fair CLR 3.2 -13.3 29% 2 76.89 0.0
02 02:15 W 11 16.09 Fair CLR 3.4 -13.2 29% 1 76.89 0.0
02 01:55 W 11 16.09 Fair CLR 2.8 -13.2 30% 0 76.89 0.0
02 01:35 W 15 16.09 Fair CLR 4 -12.9 28% 1 76.89 0.0
02 01:15 W 11 16.09 Fair CLR 3.2 -13.5 28% 1 76.89 0.0
02 00:55 SW 11 16.09 Fair CLR 5.3 -13.5 25% 3 76.89 0.0
02 00:35 W 13 16.09 Fair CLR 2.5 -13.7 29% -1 76.89 0.0
02 00:15 S 15 16.09 Fair CLR 4.2 -14.5 24% 1 76.86 0.0
01 23:55 SW 17 16.09 Fair CLR 4.6 -14.5 14.7 4.5 24% 1 76.86 0.0
01 23:35 SW 17 16.09 Fair CLR 4.8 -14.6 23% 2 76.86 0.0
01 23:15 SW 17 16.09 Fair CLR 5.1 -14.7 23% 2 76.86 0.0
01 22:55 S 17 16.09 Fair CLR 5.5 -14.8 22% 2 76.86 0.0
01 22:35 S 15 16.09 Fair CLR 4.5 -14.8 23% 2 76.84 0.0
01 22:15 S 15 16.09 Fair CLR 5.7 -15 21% 3 76.84 0.0
01 21:55 S 13 16.09 Fair CLR 6.6 -15.3 19% 4 76.84 0.0
01 21:35 SE 13 16.09 Fair CLR 7.3 -15.5 18% 5 76.81 0.0
01 21:15 SE 11 16.09 Fair CLR 8.5 -15.7 16% 7 76.81 0.0
01 20:55 SE 9 16.09 Fair CLR 9.7 -15.8 15% 9 76.78 0.0
01 20:35 SE 9 16.09 Fair CLR 8 -15.7 17% 7 76.76 0.0
01 20:15 SE 7 16.09 Fair CLR 10.2 -15.6 15% 76.76 0.0
01 19:55 E 7 16.09 Fair CLR 12.3 -15.6 13% 76.76 0.0
01 19:35 E 6 16.09 Fair CLR 13.3 -16.1 11% 76.76 0.0
01 19:15 Calm 16.09 Fair CLR 13.5 -16.4 11% 76.73 0.0
01 18:55 E 13 16.09 Fair CLR 13.9 -16.3 11% 76.73 0.0
01 18:35 NE 7 16.09 Fair CLR 14 -16.2 11% 76.76 0.0
01 18:15 NE 13 16.09 Fair CLR 14.3 -15.7 11% 76.76 0.0
01 17:55 N 11 16.09 Fair CLR 14.6 -15 15 9.2 12% 76.76 0.0
01 17:35 NE 11 16.09 Fair CLR 14.6 -15.1 11% 76.76 0.0
01 17:15 N 9 16.09 Fair CLR 14 -14.7 12% 76.76 0.0
01 16:55 E 9 16.09 Fair CLR 14.4 -14.2 13% 76.76 0.0
01 16:35 E 15 16.09 Fair CLR 14.4 -14.6 12% 76.76 0.0
01 16:15 NE 11 16.09 Fair CLR 14.2 -13.5 13% 76.76 0.0
01 15:55 NE 9 16.09 Fair CLR 13.5 -14.4 13% 76.81 0.0
01 15:35 NE 19 G 28 16.09 Fair CLR 13.8 -13.3 14% 76.81 0.0
01 15:15 E 13 G 28 16.09 Fair CLR 13.3 -13.3 14% 76.81 0.0
01 14:55 NE 11 16.09 Fair CLR 13.2 -13.3 15% 76.81 0.0
01 14:35 E 19 G 26 16.09 Fair CLR 13.1 -15 13% 76.84 0.0
01 14:15 NE 13 G 26 16.09 Fair CLR 12.8 -14.2 14% 76.84 0.0
01 13:55 SE 11 16.09 Fair CLR 11.9 -14.3 15% 76.84 0.0
01 13:35 E 11 16.09 Fair CLR 12.3 -12.9 16% 76.84 0.0
01 13:15 Calm 16.09 Fair CLR 10.9 -12.6 18% 76.84 0.0
01 12:55 E 15 16.09 Fair CLR 10.6 -11 21% 76.86 0.0
01 12:35 SE 13 16.09 Fair CLR 10.5 -10 23% 76.86 0.0
01 12:15 Calm 16.09 Fair CLR 10 -10.8 22% 76.89 0.0
01 11:55 SE 9 G 28 16.09 Fair CLR 9.7 -10.8 9.8 -2.5 23% 9 76.89 0.0
01 11:35 E 15 16.09 Fair CLR 9.8 -10.5 23% 8 76.89 0.0
01 11:15 E 15 16.09 Fair CLR 9 -10.3 25% 7 76.91 0.0
01 10:55 SE 11 16.09 Fair CLR 8.2 -9.5 28% 7 76.91 0.0
01 10:35 SE 9 16.09 Fair CLR 7.7 -8.8 30% 6 76.91 0.0
01 10:15 Calm 16.09 Fair CLR 6.5 -7.1 37% 76.91 0.0
01 09:55 SE 6 16.09 Fair CLR 6.1 -5.7 43% 76.91 0.0
01 09:35 NE 7 16.09 Fair CLR 5 -5.5 47% 4 76.91 0.0
01 09:15 NE 9 16.09 Fair CLR 4.1 -4.8 53% 2 76.89 0.0
01 08:55 NE 7 16.09 Fair CLR 3.6 -4 58% 2 76.89 0.0
01 08:35 E 7 16.09 Fair CLR 3 -3.6 62% 1 76.89 0.0
01 08:15 NE 7 16.09 Fair CLR 2.4 -3.4 66% 1 76.86 0.0
01 07:55 NE 9 16.09 Fair CLR 1.3 -3.1 73% -1 76.86 0.0
01 07:35 E 7 16.09 Fair CLR 0.8 -3.4 74% -1 76.84 0.0
01 07:15 E 6 16.09 Fair CLR -0.3 -4.3 75% 76.81 0.0
01 06:55 E 6 16.09 Fair CLR -1.6 -5.7 74% 76.81 0.0
01 06:35 E 6 16.09 Fair CLR -0.5 -5.3 70% 76.81 0.0
01 06:15 NE 7 16.09 Fair CLR -1.2 -5 76% -4 76.78 0.0
01 05:55 NE 7 16.09 Fair CLR -2 -6.2 1.7 -2 73% -4 76.78 0.0
01 05:35 N 6 16.09 Fair CLR -0.1 -5.8 66% 76.78 0.0
01 05:15 Calm 16.09 Fair CLR -0.3 -5.5 68% 76.76 0.0
01 04:55 Calm 16.09 Fair CLR -0.5 -5.5 69% 76.76 0.0
01 04:35 Calm 16.09 Fair CLR -0.6 -5.1 72% 76.76 0.0
01 04:15 Calm 16.09 Fair CLR -0.9 -5.4 72% 76.76 0.0
01 03:55 Calm 16.09 Fair CLR 0.3 -4.5 71% 76.76 0.0
01 03:35 Calm 16.09 Fair CLR 1.2 -5.5 61% 76.76 0.0
01 03:15 Calm 16.09 Fair CLR 1.5 -5.3 61% 76.78 0.0
01 02:55 E 6 16.09 Fair CLR 0.8 -4.3 69% 76.81 0.0
01 02:35 Calm 16.09 Mostly Cloudy BKN055 0 -5.1 69% 76.81 0.0
01 02:15 SE 9 16.09 Overcast OVC055 1.2 -4.6 66% -1 76.81 0.0
01 01:55 SE 9 16.09 Mostly Cloudy BKN055 1.2 -4.4 67% -1 76.81 0.0
01 01:35 SE 9 16.09 Overcast OVC055 1.4 -4.3 66% -1 76.81 0.0
01 01:15 SE 9 16.09 Overcast OVC055 1.2 -4.5 66% -1 76.81 0.0
01 00:55 SE 9 16.09 Overcast OVC055 1.6 -4.1 66% -1 76.81 0.0
01 00:35 E 7 16.09 Overcast OVC055 1.5 -4.1 67% -0 76.81 0.0
01 00:15 SE 9 16.09 Mostly Cloudy BKN055 0.7 -4.2 70% -2 76.78 0.0
30 23:55 E 9 16.09 Fair CLR 0.6 -4.5 10.1 0.5 69% -2 76.76 0.0
30 23:35 E 9 16.09 Fair CLR 0.5 -4.7 68% -2 76.76 0.0
30 23:15 E 13 16.09 Fair CLR 2 -4 65% -1 76.76 0.0
30 22:55 E 13 16.09 Fair CLR 2 -4.3 63% -1 76.76 0.0
30 22:35 NE 9 16.09 Fair CLR 1.9 -4.4 63% -1 76.76 0.0
30 22:15 E 13 16.09 Fair CLR 3 -4.2 60% 0 76.76 0.0
30 21:55 E 13 16.09 Partly Cloudy SCT055 2.7 -4 62% -0 76.73 0.0
30 21:35 E 11 16.09 Fair CLR 3 -4.1 60% 0 76.71 0.0
30 21:15 E 13 16.09 Fair CLR 3.5 -4.3 57% 1 76.71 0.0
30 20:55 E 13 16.09 Fair CLR 4.3 -4.8 52% 2 76.71 0.0
30 20:35 E 13 16.09 Fair CLR 4.4 -5.5 49% 2 76.68 0.0
30 20:15 E 15 16.09 Fair CLR 5.7 -5.2 46% 3 76.66 0.0
30 19:55 E 19 16.09 Fair CLR 6.7 -5 43% 4 76.66 0.0
30 19:35 E 22 16.09 Partly Cloudy SCT060 SCT070 7 -5.2 42% 4 76.63 0.0
30 19:15 E 24 16.09 Mostly Cloudy SCT060 BKN070 BKN085 8.6 -5.4 37% 6 76.63 0.0
30 18:55 E 15 16.09 Partly Cloudy SCT065 SCT070 SCT085 9.8 -7.6 29% 8 76.61 0.0
30 18:35 NE 15 16.09 Partly Cloudy SCT065 10 -6.8 30% 8 76.61 0.0
30 18:15 E 9 16.09 Fair CLR 9.4 -7.7 29% 8 76.61 0.0
30 17:55 E 13 16.09 Partly Cloudy SCT055 SCT075 10 -7.6 10.2 4.2 28% 8 76.61 0.0
30 17:35 Calm 16.09 Fair CLR 9.8 -7.6 29% 76.63 0.0
30 17:15 E 9 16.09 Partly Cloudy SCT055 SCT065 8.9 -7.1 32% 8 76.63 0.0
30 16:55 N 13 16.09 Fair CLR 9.8 -6.7 31% 8 76.63 0.0
30 16:35 Calm 16.09 Partly Cloudy SCT049 8.7 -7.6 31% 76.63 0.0
30 16:15 E 11 16.09 Partly Cloudy SCT043 SCT049 SCT055 9.1 -5.8 35% 8 76.66 0.0
30 15:55 E 9 16.09 Mostly Cloudy SCT043 BKN055 9 -5.9 35% 8 76.66 0.0
30 15:35 NE 7 16.09 Mostly Cloudy SCT041 BKN060 7.7 -4.5 42% 7 76.68 0.0
30 15:15 E 11 16.09 Mostly Cloudy SCT041 BKN060 6.9 -4.6 44% 5 76.68 0.0
30 14:55 NE 11 16.09 Overcast SCT038 OVC050 7.2 -4.4 44% 5 76.71 0.0
30 14:35 E 7 16.09 Overcast SCT036 SCT045 OVC050 7.1 -4.3 44% 6 76.71 0.0
30 14:15 E 9 16.09 Overcast SCT034 SCT045 OVC050 6.9 -4.4 45% 5 76.71 0.0
30 13:55 E 13 16.09 Overcast SCT031 SCT040 OVC048 6.3 -3.5 50% 4 76.71 0.0
30 13:35 E 9 16.09 Overcast SCT033 OVC044 6.2 -3.7 49% 5 76.73 0.0
30 13:15 E 7 16.09 Overcast SCT026 SCT031 OVC047 6.6 -3.5 49% 5 76.76 0.0
30 12:55 SE 15 G 26 16.09 Overcast BKN026 BKN031 OVC045 6.8 -2.4 52% 4 76.76 0.0
30 12:35 E 19 G 26 16.09 Overcast BKN024 OVC029 5.1 -2.7 57% 2 76.76 0.0
30 12:15 E 17 G 26 16.09 Overcast BKN022 OVC038 4.6 -2.5 60% 1 76.81 0.0
30 11:55 E 15 16.09 Light Snow SCT015 BKN022 OVC038 4.7 -2.1 4.8 0 62% 2 76.81 0.0
30 11:35 E 19 G 28 11.27 Light Snow BKN013 BKN018 OVC036 4.2 -1.4 67% 1 76.81 0.0
30 11:15 E 22 16.09 Overcast BKN015 OVC021 4.2 -0.9 70% 0 76.81 0.0
30 10:55 E 22 16.09 Overcast BKN015 OVC022 3.4 -1.7 70% -1 76.81 0.0
30 10:35 E 20 16.09 Overcast OVC013 2.5 -1.3 76% -2 76.81 0.0
30 10:15 E 20 G 31 16.09 Overcast OVC013 2.6 -1.4 75% -2 76.81 0.0
30 09:55 E 24 G 30 16.09 Overcast BKN011 OVC048 2.5 -0.4 81% -2 76.81 0.0
30 09:35 E 19 G 28 16.09 Overcast BKN011 OVC022 2.3 -0.2 84% -2 76.81 0.0
30 09:15 E 22 G 30 16.09 Overcast SCT007 OVC011 1.8 0.2 89% -3 76.78 0.0
30 08:55 E 19 16.09 Overcast OVC005 1.5 0.5 93% -3 76.78 0.0
30 08:35 E 17 16.09 Overcast OVC005 1.3 0.6 95% -3 76.78 0.0
30 08:15 E 20 16.09 Overcast OVC003 1 0.8 99% -4 76.76 0.0
30 07:55 E 19 11.27 Light Snow OVC003 0.8 0.8 100% -4 76.76 0.0
30 07:35 NE 11 16.09 Overcast OVC003 0.5 0.5 100% -3 76.76 0.0
30 07:15 NE 9 16.09 Overcast OVC003 0.1 0.1 100% -3 76.71 0.0
30 06:55 Calm 16.09 Overcast OVC003 0 0 100% 76.71 0.0
30 06:35 Calm 16.09 Overcast OVC003 0 -0.1 99% 76.71 0.0
30 06:15 Calm 16.09 Overcast OVC003 0 -0.3 98% 76.71 0.0
30 05:55 N 7 16.09 Overcast OVC005 0 -0.2 2.5 -1.2 99% -2 76.71 0.0
30 05:35 N 9 16.09 Overcast OVC005 -0.2 -0.6 97% -3 76.68 0.0
30 05:15 N 9 16.09 Partly Cloudy SCT007 -0.6 -1 97% -3 76.71 0.0
30 04:55 N 7 16.09 Fair CLR -1.1 -2 94% -3 76.68 0.0
30 04:35 NW 7 16.09 Partly Cloudy SCT026 -0.8 -3.3 83% -3 76.68 0.0
30 04:15 NW 6 16.09 Partly Cloudy SCT026 -0.4 -1.8 90% 76.68 0.0
30 03:55 W 7 16.09 Fair CLR 0.1 -2.2 85% -2 76.68 0.0
30 03:35 NW 7 16.09 Fair CLR 1.3 -2.3 77% -1 76.68 0.0
30 03:15 W 6 16.09 Fair CLR 2.2 -1.6 76% 76.68 0.0
30 02:55 Calm 16.09 Fair CLR 2.1 -1.9 75% 76.68 0.0
30 02:35 Calm 16.09 Fair CLR 2.2 -1.6 76% 76.68 0.0
30 02:15 W 6 16.09 Fair CLR 1.6 -2.1 77% 76.68 0.0
30 01:55 W 6 16.09 Fair CLR 2.2 -2 74% 76.71 0.0
30 01:35 W 6 16.09 Partly Cloudy SCT110 2.1 -2 75% 76.71 0.0
30 01:15 W 9 16.09 Mostly Cloudy BKN110 1.8 -2 76% -1 76.71 0.0
30 00:55 W 11 16.09 Overcast SCT070 OVC110 2.4 -2 73% -0 76.71 0.0
30 00:35 W 11 16.09 Overcast SCT055 OVC070 2.1 -2 75% -1 76.71 0.0
30 00:15 W 11 16.09 Overcast SCT055 OVC080 2.2 -2 74% -1 76.71 0.0
29 23:55 W 11 16.09 Overcast BKN060 OVC080 2.6 -2 8.5 2.6 72% -0 76.71 0.0
29 23:35 W 9 16.09 Mostly Cloudy BKN060 BKN070 4 -3 61% 2 76.71 0.0
29 23:15 W 9 16.09 Partly Cloudy SCT070 4 -2.8 62% 2 76.71 0.0
29 22:55 W 15 16.09 Mostly Cloudy BKN070 BKN100 3.8 -2.7 63% 1 76.71 0.0
29 22:35 SW 11 16.09 Overcast SCT045 BKN070 OVC100 4.5 -2.5 61% 2 76.71 0.0
29 22:15 W 6 16.09 Overcast BKN045 BKN060 OVC100 4.7 -2.6 60% 76.76 0.0
29 21:55 W 17 16.09 Overcast SCT047 BKN060 OVC070 5.6 -3.2 54% 3 76.71 0.0
29 21:35 W 9 16.09 Overcast SCT060 BKN075 OVC085 5.5 -2.6 56% 4 76.71 0.0
29 21:15 W 7 16.09 Overcast OVC095 5.5 -2.8 55% 4 76.68 0.0
29 20:50 W 17 16.09 Overcast SCT095 OVC120 5.6 -3.1 54% 3 76.66 0.0
29 20:35 W 9 16.09 Overcast OVC110 6 -5.7 43% 4 76.66 0.0
29 20:15 W 7 16.09 Overcast SCT075 BKN090 OVC110 6.6 -3.9 47% 5 76.63 0.0
29 19:55 W 11 16.09 Overcast SCT075 OVC090 7.3 -3.7 46% 5 76.63 0.0
29 19:35 W 11 16.09 Overcast BKN075 OVC090 7.6 -4.6 42% 6 76.63 0.0
Date Time (mdt) Wind (kph) Vis. (km) Weather Sky Cond. Air Dwpt Max. Min. Relative Humidity Wind Chill (°C) Heat Index (°C) altimeter (cm) sea level (mb) 1 hr 3 hr 6 hr
6 hour
Temperature (ºC) Pressure Precipitation (cm)